GW3446 Weather Reports


time (UTC)temp
C
wind
direction
speed
KPH
gust
KPH
rain 1hr
cm
rain 24hr
cm
rain mn
cm
humidity
%
barometer
mb
20260906200025 33 121 12.9 33.8 0.00 0.08 0.08 38 1015.8
20260906194521 33 139 12.9 25.7 0.00 0.08 0.08 39 1016.1
20260906193024 32 121 12.9 32.2 0.00 0.08 0.08 42 1016.5
20260906191526 32 141 8.0 30.6 0.00 0.08 0.08 41 1016.6
20260906190011 32 144 17.7 27.4 0.00 0.08 0.08 42 1016.8
20260906184527 31 222 12.9 24.1 0.00 0.08 0.08 46 1017.1
20260906183005 30 90 12.9 22.5 0.00 0.08 0.08 46 1017.3
20260906181508 30 65 11.3 24.1 0.00 0.08 0.08 49 1017.6
20260906180013 28 88 8.0 20.9 0.00 0.08 0.08 54 1017.8
20260906174528 28 87 12.9 25.7 0.00 0.08 0.08 54 1018.1
20260906173004 27 103 14.5 30.6 0.00 0.08 0.08 58 1018.4
20260906171508 27 95 12.9 29.0 0.00 0.08 0.08 61 1018.9
20260906170016 26 83 14.5 30.6 0.00 0.08 0.08 66 1019.2
20260906164535 25 58 11.3 27.4 0.00 0.08 0.08 68 1019.4
20260906163008 25 47 12.9 25.7 0.03 0.08 0.08 69 1019.3
20260906161516 25 86 11.3 27.4 0.08 0.08 0.08 68 1019.5
20260906160024 25 74 14.5 27.4 0.08 0.08 0.08 70 1019.5
20260906154530 24 70 12.9 24.1 0.08 0.08 0.08 71 1019.5
20260906153022 24 71 17.7 32.2 0.05 0.05 0.05 69 1019.3
20260906151520 24 44 12.9 25.7 0.00 0.00 0.00 69 1019.1
20260906150026 26 47 9.7 20.9 0.00 0.00 0.00 59 1019.0
20260906144532 26 69 14.5 27.4 0.00 0.00 0.00 57 1018.8
20260906143014 26 142 1.6 14.5 0.00 0.00 0.00 59 1018.3
20260906141525 25 162 6.4 16.1 0.00 0.00 0.00 61 1018.2
20260906140029 24 117 3.2 9.7 0.00 0.00 0.00 66 1017.9
20260906134529 23 148 1.6 12.9 0.00 0.00 0.00 71 1017.8
20260906133012 22 136 4.8 11.3 0.00 0.00 0.00 72 1017.4
20260906131523 22 111 3.2 12.9 0.00 0.00 0.00 73 1017.4
20260906130031 22 145 3.2 11.3 0.00 0.00 0.00 75 1017.2
20260906124537 21 122 1.6 8.0 0.00 0.00 0.00 75 1016.9
20260906123024 21 129 1.6 4.8 0.00 0.00 0.00 76 1016.7
20260906121531 21 186 0.0 4.8 0.00 0.00 0.00 76 1016.5
20260906120029 21 186 0.0 4.8 0.00 0.00 0.00 76 1016.5
20260906114532 21 186 0.0 4.8 0.00 0.00 0.00 76 1016.4
20260906113023 21 186 3.2 8.0 0.00 0.00 0.00 76 1016.3
20260906111506 21 141 3.2 8.0 0.00 0.00 0.00 75 1016.1
20260906110008 22 141 0.0 4.8 0.00 0.00 0.00 74 1016.1
20260906104520 22 141 3.2 6.4 0.00 0.00 0.00 73 1016.0
20260906103040 22 141 1.6 11.3 0.00 0.00 0.00 72 1015.9
20260906101504 22 180 1.6 6.4 0.00 0.00 0.00 72 1015.9
20260906100023 22 129 1.6 11.3 0.00 0.00 0.00 73 1015.8
20260906094519 22 208 4.8 8.0 0.00 0.00 0.00 72 1015.9
20260906093004 23 208 4.8 8.0 0.00 0.00 0.00 71 1016.0
20260906091506 23 208 3.2 8.0 0.00 0.00 0.00 69 1016.0
20260906090012 23 208 3.2 8.0 0.00 0.00 0.00 67 1016.0
20260906084523 24 208 4.8 9.7 0.00 0.00 0.00 66 1016.0
20260906083004 24 223 6.4 8.0 0.00 0.00 0.00 65 1016.0
20260906081510 24 224 4.8 8.0 0.00 0.00 0.00 65 1016.2
20260906080016 24 205 4.8 11.3 0.00 0.00 0.00 65 1016.3
20260906074526 24 227 4.8 9.7 0.00 0.00 0.00 65 1016.3
20260906073005 24 189 4.8 8.0 0.00 0.00 0.00 65 1016.2
20260906071513 24 217 6.4 9.7 0.00 0.00 0.00 65 1016.2
20260906070018 24 209 4.8 9.7 0.00 0.00 0.00 64 1016.2
20260906064534 24 182 3.2 9.7 0.00 0.00 0.00 64 1016.2
20260906063008 25 175 4.8 9.7 0.00 0.00 0.00 63 1016.3
20260906061522 25 158 3.2 11.3 0.00 0.00 0.00 62 1016.3
20260906060023 25 163 3.2 11.3 0.00 0.00 0.00 61 1016.4
20260906054536 25 157 3.2 12.9 0.00 0.00 0.00 60 1016.1
20260906053009 25 151 8.0 17.7 0.00 0.00 0.00 59 1015.9
20260906051518 25 151 6.4 17.7 0.00 0.00 0.00 58 1015.8
20260906050027 25 116 6.4 19.3 0.00 0.00 0.00 58 1015.6
20260906044532 25 117 8.0 17.7 0.00 0.00 0.00 58 1015.2
20260906043020 25 128 8.0 19.3 0.00 0.00 0.00 58 1015.4
20260906041519 25 142 6.4 12.9 0.00 0.00 0.00 59 1015.4
20260906040027 25 116 4.8 12.9 0.00 0.03 0.00 58 1015.4
20260906034534 26 123 4.8 16.1 0.00 0.05 0.00 58 1015.3
20260906033013 26 108 6.4 16.1 0.00 0.08 0.00 58 1015.3
20260906031524 26 171 4.8 12.9 0.00 0.08 0.00 56 1015.3
20260906030027 26 188 4.8 17.7 0.00 0.08 0.00 56 1015.2
20260906024509 26 135 6.4 20.9 0.00 0.08 0.00 56 1015.1
20260906023016 26 130 6.4 20.9 0.00 0.08 0.00 58 1014.8
20260906021506 26 154 9.7 25.7 0.00 0.08 0.00 59 1014.7
20260906020007 26 115 9.7 22.5 0.00 0.08 0.00 58 1014.7
20260906014515 27 121 8.0 22.5 0.00 0.08 0.00 56 1014.3
20260906013034 27 111 11.3 27.4 0.00 0.08 0.00 55 1014.1
20260906011504 27 138 9.7 24.1 0.00 0.08 0.00 56 1014.3
20260906010008 27 117 12.9 25.7 0.00 0.08 0.00 56 1014.3
20260906004517 28 128 11.3 24.1 0.00 0.08 0.00 53 1014.4
20260906003025 30 81 11.3 27.4 0.00 0.08 0.00 48 1014.5
20260906001506 31 107 8.0 29.0 0.00 0.08 0.00 45 1014.5
20260906000008 32 74 14.5 30.6 0.00 0.08 0.00 44 1014.3
20260905234515 35 103 4.8 14.5 0.00 0.08 0.00 34 1014.2
20260905233024 35 182 8.0 24.1 0.00 0.08 0.00 34 1014.1
20260905231506 35 176 9.7 25.7 0.00 0.08 0.00 34 1013.9
20260905230013 36 189 8.0 24.1 0.00 0.08 0.00 33 1013.7
20260905224528 36 177 8.0 27.4 0.00 0.08 0.00 32 1013.5
20260905223024 37 195 12.9 22.5 0.00 0.08 0.00 31 1013.4
20260905221504 36 219 16.1 29.0 0.00 0.08 0.00 32 1013.3
20260905220012 36 196 14.5 32.2 0.00 0.08 0.00 32 1013.3
20260905214523 36 194 14.5 30.6 0.00 0.08 0.00 31 1013.4
20260905213027 37 173 12.9 29.0 0.00 0.08 0.00 30 1013.5
20260905211507 37 180 17.7 24.1 0.00 0.08 0.00 29 1013.6
20260905210016 37 194 14.5 32.2 0.00 0.08 0.00 30 1013.8
20260905204503 37 199 16.1 25.7 0.00 0.08 0.00 31 1014.0
20260905203006 37 128 11.3 29.0 0.00 0.08 0.00 31 1014.3
20260905201517 36 180 11.3 24.1 0.00 0.08 0.00 33 1014.5